カタログに戻る

STARLINK-34821

運用中通信VLEO
NORAD 65199·PAYLOAD·🇺🇸 United States

打ち上げ Aug 14, 2025 から Cape Canaveral Space Force Station

Loading…

次のパス (今後24時間)

TLE

最新Source: CelesTrak SupGP

元期: Sep 15, 2026, 03:31 UTC

1 65199C 25176B   26258.14701389  .00067566  00000+0  19954-2 0  2584
2 65199  53.1600 348.4425 0001209  92.4794  47.9246 15.34370885    11

AllMySatでSTARLINK-34821をリアルタイム追跡

Download on the App Store